<?xml version="1.0" encoding="UTF-8" standalone="no" ?>
<gpx xmlns="http://www.topografix.com/GPX/1/1" xmlns:xsi="http://www.w3.org/2001/XMLSchema-instance" xsi:schemaLocation="http://www.topografix.com/GPX/1/1 http://www.topografix.com/GPX/1/1/gpx.xsd" version="1.1" creator="VisuGPX - https://www.visugpx.com">
  <metadata>
    <name>Drome coline - Abbaye </name>
    <desc><![CDATA[Projet pour 10/2021
gits ;
Roybon  La Dupre
Montrigaud  Limone vallee]]></desc>
  </metadata>
  <trk>
    <name><![CDATA[J1 Boucle de Louis Mandrin]]></name>
    <trkseg>
      <trkpt lat="45.25478" lon="5.26473">
        <ele>620</ele>
        <time>2020-04-14T15:53:54Z</time>
      </trkpt>
      <trkpt lat="45.25369" lon="5.264">
        <ele>620</ele>
        <time>2020-04-14T15:53:59Z</time>
      </trkpt>
      <trkpt lat="45.25433" lon="5.26361">
        <ele>620</ele>
        <time>2020-04-14T15:54:04Z</time>
      </trkpt>
      <trkpt lat="45.25496" lon="5.26258">
        <ele>617</ele>
        <time>2020-04-14T15:54:09Z</time>
      </trkpt>
      <trkpt lat="45.25608" lon="5.26087">
        <ele>610</ele>
        <time>2020-04-14T15:54:14Z</time>
      </trkpt>
      <trkpt lat="45.25674" lon="5.25949">
        <ele>600</ele>
        <time>2020-04-14T15:54:19Z</time>
      </trkpt>
      <trkpt lat="45.25701" lon="5.25949">
        <ele>598</ele>
        <time>2020-04-14T15:54:24Z</time>
      </trkpt>
      <trkpt lat="45.25816" lon="5.26138">
        <ele>587</ele>
        <time>2020-04-14T15:54:29Z</time>
      </trkpt>
      <trkpt lat="45.25795" lon="5.26378">
        <ele>582</ele>
        <time>2020-04-14T15:54:34Z</time>
      </trkpt>
      <trkpt lat="45.25768" lon="5.26619">
        <ele>586</ele>
        <time>2020-04-14T15:54:39Z</time>
      </trkpt>
      <trkpt lat="45.25729" lon="5.26808">
        <ele>588</ele>
        <time>2020-04-14T15:54:44Z</time>
      </trkpt>
      <trkpt lat="45.25656" lon="5.26881">
        <ele>590</ele>
        <time>2020-04-14T15:54:49Z</time>
      </trkpt>
      <trkpt lat="45.25466" lon="5.26984">
        <ele>596</ele>
        <time>2020-04-14T15:54:54Z</time>
      </trkpt>
      <trkpt lat="45.25303" lon="5.27018">
        <ele>609</ele>
        <time>2020-04-14T15:54:59Z</time>
      </trkpt>
      <trkpt lat="45.252" lon="5.27134">
        <ele>609</ele>
        <time>2020-04-14T15:55:04Z</time>
      </trkpt>
      <trkpt lat="45.25124" lon="5.27112">
        <ele>617</ele>
        <time>2020-04-14T15:55:09Z</time>
      </trkpt>
      <trkpt lat="45.25121" lon="5.27215">
        <ele>608</ele>
        <time>2020-04-14T15:55:14Z</time>
      </trkpt>
      <trkpt lat="45.25049" lon="5.2746">
        <ele>588</ele>
        <time>2020-04-14T15:55:19Z</time>
      </trkpt>
      <trkpt lat="45.25079" lon="5.27464">
        <ele>584</ele>
        <time>2020-04-14T15:55:24Z</time>
      </trkpt>
      <trkpt lat="45.25064" lon="5.27503">
        <ele>588</ele>
        <time>2020-04-14T15:55:29Z</time>
      </trkpt>
      <trkpt lat="45.25091" lon="5.27606">
        <ele>591</ele>
        <time>2020-04-14T15:55:34Z</time>
      </trkpt>
      <trkpt lat="45.25124" lon="5.27619">
        <ele>597</ele>
        <time>2020-04-14T15:55:39Z</time>
      </trkpt>
      <trkpt lat="45.25161" lon="5.27589">
        <ele>599</ele>
        <time>2020-04-14T15:55:44Z</time>
      </trkpt>
      <trkpt lat="45.25191" lon="5.2761">
        <ele>604</ele>
        <time>2020-04-14T15:55:49Z</time>
      </trkpt>
      <trkpt lat="45.25248" lon="5.27619">
        <ele>609</ele>
        <time>2020-04-14T15:55:54Z</time>
      </trkpt>
      <trkpt lat="45.2543" lon="5.27563">
        <ele>611</ele>
        <time>2020-04-14T15:55:59Z</time>
      </trkpt>
      <trkpt lat="45.25581" lon="5.27563">
        <ele>611</ele>
        <time>2020-04-14T15:56:04Z</time>
      </trkpt>
      <trkpt lat="45.25626" lon="5.27662">
        <ele>610</ele>
        <time>2020-04-14T15:56:09Z</time>
      </trkpt>
      <trkpt lat="45.25647" lon="5.27799">
        <ele>608</ele>
        <time>2020-04-14T15:56:14Z</time>
      </trkpt>
      <trkpt lat="45.25638" lon="5.27911">
        <ele>609</ele>
        <time>2020-04-14T15:56:19Z</time>
      </trkpt>
      <trkpt lat="45.2565" lon="5.28108">
        <ele>595</ele>
        <time>2020-04-14T15:56:24Z</time>
      </trkpt>
      <trkpt lat="45.25584" lon="5.28228">
        <ele>591</ele>
        <time>2020-04-14T15:56:29Z</time>
      </trkpt>
      <trkpt lat="45.25587" lon="5.28267">
        <ele>587</ele>
        <time>2020-04-14T15:56:34Z</time>
      </trkpt>
      <trkpt lat="45.25614" lon="5.28288">
        <ele>585</ele>
        <time>2020-04-14T15:56:39Z</time>
      </trkpt>
      <trkpt lat="45.25695" lon="5.28275">
        <ele>590</ele>
        <time>2020-04-14T15:56:44Z</time>
      </trkpt>
      <trkpt lat="45.25638" lon="5.28378">
        <ele>605</ele>
        <time>2020-04-14T15:56:49Z</time>
      </trkpt>
      <trkpt lat="45.25611" lon="5.28601">
        <ele>610</ele>
        <time>2020-04-14T15:56:54Z</time>
      </trkpt>
      <trkpt lat="45.25324" lon="5.28962">
        <ele>631</ele>
        <time>2020-04-14T15:56:59Z</time>
      </trkpt>
      <trkpt lat="45.25269" lon="5.28983">
        <ele>635</ele>
        <time>2020-04-14T15:57:04Z</time>
      </trkpt>
      <trkpt lat="45.25206" lon="5.29061">
        <ele>639</ele>
        <time>2020-04-14T15:57:09Z</time>
      </trkpt>
      <trkpt lat="45.25073" lon="5.29151">
        <ele>640</ele>
        <time>2020-04-14T15:57:14Z</time>
      </trkpt>
      <trkpt lat="45.24937" lon="5.29352">
        <ele>653</ele>
        <time>2020-04-14T15:57:19Z</time>
      </trkpt>
      <trkpt lat="45.24744" lon="5.29434">
        <ele>660</ele>
        <time>2020-04-14T15:57:24Z</time>
      </trkpt>
      <trkpt lat="45.24644" lon="5.29464">
        <ele>660</ele>
        <time>2020-04-14T15:57:29Z</time>
      </trkpt>
      <trkpt lat="45.24578" lon="5.29533">
        <ele>661</ele>
        <time>2020-04-14T15:57:34Z</time>
      </trkpt>
      <trkpt lat="45.24433" lon="5.29563">
        <ele>662</ele>
        <time>2020-04-14T15:57:39Z</time>
      </trkpt>
      <trkpt lat="45.24387" lon="5.29614">
        <ele>666</ele>
        <time>2020-04-14T15:57:44Z</time>
      </trkpt>
      <trkpt lat="45.24324" lon="5.29588">
        <ele>667</ele>
        <time>2020-04-14T15:57:49Z</time>
      </trkpt>
      <trkpt lat="45.24294" lon="5.29739">
        <ele>669</ele>
        <time>2020-04-14T15:57:54Z</time>
      </trkpt>
      <trkpt lat="45.24188" lon="5.30219">
        <ele>680</ele>
        <time>2020-04-14T15:57:59Z</time>
      </trkpt>
      <trkpt lat="45.24064" lon="5.3076">
        <ele>690</ele>
        <time>2020-04-14T15:58:04Z</time>
      </trkpt>
      <trkpt lat="45.24167" lon="5.30799">
        <ele>691</ele>
        <time>2020-04-14T15:58:09Z</time>
      </trkpt>
      <trkpt lat="45.24281" lon="5.30846">
        <ele>698</ele>
        <time>2020-04-14T15:58:14Z</time>
      </trkpt>
      <trkpt lat="45.24354" lon="5.3094">
        <ele>700</ele>
        <time>2020-04-14T15:58:19Z</time>
      </trkpt>
      <trkpt lat="45.24408" lon="5.3097">
        <ele>697</ele>
        <time>2020-04-14T15:58:24Z</time>
      </trkpt>
      <trkpt lat="45.24481" lon="5.31026">
        <ele>693</ele>
        <time>2020-04-14T15:58:29Z</time>
      </trkpt>
      <trkpt lat="45.24566" lon="5.30979">
        <ele>690</ele>
        <time>2020-04-14T15:58:34Z</time>
      </trkpt>
      <trkpt lat="45.24828" lon="5.31073">
        <ele>690</ele>
        <time>2020-04-14T15:58:39Z</time>
      </trkpt>
      <trkpt lat="45.24919" lon="5.31026">
        <ele>692</ele>
        <time>2020-04-14T15:58:44Z</time>
      </trkpt>
      <trkpt lat="45.25134" lon="5.30996">
        <ele>698</ele>
        <time>2020-04-14T15:58:49Z</time>
      </trkpt>
      <trkpt lat="45.25276" lon="5.31009">
        <ele>694</ele>
        <time>2020-04-14T15:58:54Z</time>
      </trkpt>
      <trkpt lat="45.25273" lon="5.31133">
        <ele>700</ele>
        <time>2020-04-14T15:58:59Z</time>
      </trkpt>
      <trkpt lat="45.25312" lon="5.31318">
        <ele>700</ele>
        <time>2020-04-14T15:59:04Z</time>
      </trkpt>
      <trkpt lat="45.25303" lon="5.31369">
        <ele>700</ele>
        <time>2020-04-14T15:59:09Z</time>
      </trkpt>
      <trkpt lat="45.25333" lon="5.31434">
        <ele>700</ele>
        <time>2020-04-14T15:59:14Z</time>
      </trkpt>
      <trkpt lat="45.25475" lon="5.31541">
        <ele>700</ele>
        <time>2020-04-14T15:59:19Z</time>
      </trkpt>
      <trkpt lat="45.25689" lon="5.31644">
        <ele>700</ele>
        <time>2020-04-14T15:59:24Z</time>
      </trkpt>
      <trkpt lat="45.25931" lon="5.31854">
        <ele>710</ele>
        <time>2020-04-14T15:59:29Z</time>
      </trkpt>
      <trkpt lat="45.26004" lon="5.31854">
        <ele>710</ele>
        <time>2020-04-14T15:59:34Z</time>
      </trkpt>
      <trkpt lat="45.26094" lon="5.31906">
        <ele>710</ele>
        <time>2020-04-14T15:59:39Z</time>
      </trkpt>
      <trkpt lat="45.26278" lon="5.32108">
        <ele>709</ele>
        <time>2020-04-14T15:59:44Z</time>
      </trkpt>
      <trkpt lat="45.2642" lon="5.32236">
        <ele>711</ele>
        <time>2020-04-14T15:59:49Z</time>
      </trkpt>
      <trkpt lat="45.2655" lon="5.32301">
        <ele>710</ele>
        <time>2020-04-14T15:59:54Z</time>
      </trkpt>
      <trkpt lat="45.26523" lon="5.32352">
        <ele>710</ele>
        <time>2020-04-14T15:59:59Z</time>
      </trkpt>
      <trkpt lat="45.26653" lon="5.32412">
        <ele>719</ele>
        <time>2020-04-14T16:00:04Z</time>
      </trkpt>
      <trkpt lat="45.26713" lon="5.32468">
        <ele>720</ele>
        <time>2020-04-14T16:00:09Z</time>
      </trkpt>
      <trkpt lat="45.26822" lon="5.32532">
        <ele>720</ele>
        <time>2020-04-14T16:00:14Z</time>
      </trkpt>
      <trkpt lat="45.26813" lon="5.3258">
        <ele>719</ele>
        <time>2020-04-14T16:00:19Z</time>
      </trkpt>
      <trkpt lat="45.26852" lon="5.3264">
        <ele>714</ele>
        <time>2020-04-14T16:00:24Z</time>
      </trkpt>
      <trkpt lat="45.26864" lon="5.3273">
        <ele>705</ele>
        <time>2020-04-14T16:00:29Z</time>
      </trkpt>
      <trkpt lat="45.26858" lon="5.32781">
        <ele>697</ele>
        <time>2020-04-14T16:00:34Z</time>
      </trkpt>
      <trkpt lat="45.26886" lon="5.32833">
        <ele>686</ele>
        <time>2020-04-14T16:00:39Z</time>
      </trkpt>
      <trkpt lat="45.26982" lon="5.3285">
        <ele>687</ele>
        <time>2020-04-14T16:00:44Z</time>
      </trkpt>
      <trkpt lat="45.27109" lon="5.32833">
        <ele>680</ele>
        <time>2020-04-14T16:00:49Z</time>
      </trkpt>
      <trkpt lat="45.27188" lon="5.32979">
        <ele>684</ele>
        <time>2020-04-14T16:00:54Z</time>
      </trkpt>
      <trkpt lat="45.27251" lon="5.3291">
        <ele>696</ele>
        <time>2020-04-14T16:00:59Z</time>
      </trkpt>
      <trkpt lat="45.2736" lon="5.32872">
        <ele>715</ele>
        <time>2020-04-14T16:01:04Z</time>
      </trkpt>
      <trkpt lat="45.27375" lon="5.3285">
        <ele>716</ele>
        <time>2020-04-14T16:01:09Z</time>
      </trkpt>
      <trkpt lat="45.27514" lon="5.32996">
        <ele>722</ele>
        <time>2020-04-14T16:01:14Z</time>
      </trkpt>
      <trkpt lat="45.27607" lon="5.33129">
        <ele>730</ele>
        <time>2020-04-14T16:01:19Z</time>
      </trkpt>
      <trkpt lat="45.27659" lon="5.33168">
        <ele>726</ele>
        <time>2020-04-14T16:01:24Z</time>
      </trkpt>
      <trkpt lat="45.27988" lon="5.33253">
        <ele>711</ele>
        <time>2020-04-14T16:01:29Z</time>
      </trkpt>
      <trkpt lat="45.2806" lon="5.33288">
        <ele>710</ele>
        <time>2020-04-14T16:01:34Z</time>
      </trkpt>
      <trkpt lat="45.28223" lon="5.33305">
        <ele>730</ele>
        <time>2020-04-14T16:01:39Z</time>
      </trkpt>
      <trkpt lat="45.28299" lon="5.33245">
        <ele>720</ele>
        <time>2020-04-14T16:01:44Z</time>
      </trkpt>
      <trkpt lat="45.28504" lon="5.33202">
        <ele>709</ele>
        <time>2020-04-14T16:01:49Z</time>
      </trkpt>
      <trkpt lat="45.28559" lon="5.33219">
        <ele>707</ele>
        <time>2020-04-14T16:01:54Z</time>
      </trkpt>
      <trkpt lat="45.2858" lon="5.33159">
        <ele>706</ele>
        <time>2020-04-14T16:01:59Z</time>
      </trkpt>
      <trkpt lat="45.28556" lon="5.33108">
        <ele>706</ele>
        <time>2020-04-14T16:02:04Z</time>
      </trkpt>
      <trkpt lat="45.28556" lon="5.33013">
        <ele>705</ele>
        <time>2020-04-14T16:02:09Z</time>
      </trkpt>
      <trkpt lat="45.28595" lon="5.3282">
        <ele>700</ele>
        <time>2020-04-14T16:02:14Z</time>
      </trkpt>
      <trkpt lat="45.28556" lon="5.32635">
        <ele>694</ele>
        <time>2020-04-14T16:02:19Z</time>
      </trkpt>
      <trkpt lat="45.28565" lon="5.32563">
        <ele>689</ele>
        <time>2020-04-14T16:02:24Z</time>
      </trkpt>
      <trkpt lat="45.28631" lon="5.32472">
        <ele>683</ele>
        <time>2020-04-14T16:02:29Z</time>
      </trkpt>
      <trkpt lat="45.28664" lon="5.32395">
        <ele>680</ele>
        <time>2020-04-14T16:02:34Z</time>
      </trkpt>
      <trkpt lat="45.28734" lon="5.32284">
        <ele>677</ele>
        <time>2020-04-14T16:02:39Z</time>
      </trkpt>
      <trkpt lat="45.28764" lon="5.32185">
        <ele>676</ele>
        <time>2020-04-14T16:02:44Z</time>
      </trkpt>
      <trkpt lat="45.28833" lon="5.3206">
        <ele>675</ele>
        <time>2020-04-14T16:02:49Z</time>
      </trkpt>
      <trkpt lat="45.28842" lon="5.31983">
        <ele>673</ele>
        <time>2020-04-14T16:02:54Z</time>
      </trkpt>
      <trkpt lat="45.2883" lon="5.31846">
        <ele>670</ele>
        <time>2020-04-14T16:02:59Z</time>
      </trkpt>
      <trkpt lat="45.28824" lon="5.31575">
        <ele>664</ele>
        <time>2020-04-14T16:03:04Z</time>
      </trkpt>
      <trkpt lat="45.28882" lon="5.31442">
        <ele>663</ele>
        <time>2020-04-14T16:03:09Z</time>
      </trkpt>
      <trkpt lat="45.28918" lon="5.31434">
        <ele>663</ele>
        <time>2020-04-14T16:03:14Z</time>
      </trkpt>
      <trkpt lat="45.28936" lon="5.314">
        <ele>662</ele>
        <time>2020-04-14T16:03:19Z</time>
      </trkpt>
      <trkpt lat="45.2903" lon="5.31387">
        <ele>661</ele>
        <time>2020-04-14T16:03:24Z</time>
      </trkpt>
      <trkpt lat="45.29042" lon="5.31206">
        <ele>661</ele>
        <time>2020-04-14T16:03:29Z</time>
      </trkpt>
      <trkpt lat="45.29045" lon="5.31039">
        <ele>660</ele>
        <time>2020-04-14T16:03:34Z</time>
      </trkpt>
      <trkpt lat="45.29072" lon="5.30794">
        <ele>655</ele>
        <time>2020-04-14T16:03:39Z</time>
      </trkpt>
      <trkpt lat="45.2903" lon="5.30558">
        <ele>654</ele>
        <time>2020-04-14T16:03:44Z</time>
      </trkpt>
      <trkpt lat="45.28972" lon="5.30361">
        <ele>650</ele>
        <time>2020-04-14T16:03:49Z</time>
      </trkpt>
      <trkpt lat="45.28987" lon="5.30237">
        <ele>650</ele>
        <time>2020-04-14T16:03:54Z</time>
      </trkpt>
      <trkpt lat="45.28978" lon="5.2988">
        <ele>644</ele>
        <time>2020-04-14T16:03:59Z</time>
      </trkpt>
      <trkpt lat="45.2903" lon="5.2973">
        <ele>642</ele>
        <time>2020-04-14T16:04:04Z</time>
      </trkpt>
      <trkpt lat="45.2909" lon="5.29601">
        <ele>638</ele>
        <time>2020-04-14T16:04:09Z</time>
      </trkpt>
      <trkpt lat="45.29117" lon="5.29464">
        <ele>635</ele>
        <time>2020-04-14T16:04:14Z</time>
      </trkpt>
      <trkpt lat="45.28861" lon="5.29473">
        <ele>639</ele>
        <time>2020-04-14T16:04:19Z</time>
      </trkpt>
      <trkpt lat="45.28845" lon="5.28863">
        <ele>628</ele>
        <time>2020-04-14T16:04:24Z</time>
      </trkpt>
      <trkpt lat="45.28782" lon="5.2888">
        <ele>630</ele>
        <time>2020-04-14T16:04:29Z</time>
      </trkpt>
      <trkpt lat="45.28746" lon="5.28923">
        <ele>632</ele>
        <time>2020-04-14T16:04:34Z</time>
      </trkpt>
      <trkpt lat="45.28691" lon="5.28936">
        <ele>633</ele>
        <time>2020-04-14T16:04:39Z</time>
      </trkpt>
      <trkpt lat="45.28658" lon="5.28898">
        <ele>631</ele>
        <time>2020-04-14T16:04:44Z</time>
      </trkpt>
      <trkpt lat="45.28658" lon="5.28812">
        <ele>630</ele>
        <time>2020-04-14T16:04:49Z</time>
      </trkpt>
      <trkpt lat="45.28685" lon="5.28717">
        <ele>629</ele>
        <time>2020-04-14T16:04:54Z</time>
      </trkpt>
      <trkpt lat="45.28734" lon="5.28709">
        <ele>629</ele>
        <time>2020-04-14T16:04:59Z</time>
      </trkpt>
      <trkpt lat="45.28782" lon="5.2858">
        <ele>628</ele>
        <time>2020-04-14T16:05:04Z</time>
      </trkpt>
      <trkpt lat="45.28773" lon="5.2852">
        <ele>628</ele>
        <time>2020-04-14T16:05:09Z</time>
      </trkpt>
      <trkpt lat="45.28785" lon="5.2846">
        <ele>626</ele>
        <time>2020-04-14T16:05:14Z</time>
      </trkpt>
      <trkpt lat="45.28746" lon="5.28357">
        <ele>630</ele>
        <time>2020-04-14T16:05:19Z</time>
      </trkpt>
      <trkpt lat="45.28646" lon="5.27915">
        <ele>624</ele>
        <time>2020-04-14T16:05:24Z</time>
      </trkpt>
      <trkpt lat="45.28604" lon="5.27859">
        <ele>626</ele>
        <time>2020-04-14T16:05:29Z</time>
      </trkpt>
      <trkpt lat="45.28571" lon="5.27752">
        <ele>625</ele>
        <time>2020-04-14T16:05:34Z</time>
      </trkpt>
      <trkpt lat="45.28504" lon="5.27623">
        <ele>624</ele>
        <time>2020-04-14T16:05:39Z</time>
      </trkpt>
      <trkpt lat="45.28525" lon="5.27503">
        <ele>615</ele>
        <time>2020-04-14T16:05:44Z</time>
      </trkpt>
      <trkpt lat="45.28528" lon="5.27408">
        <ele>609</ele>
        <time>2020-04-14T16:05:49Z</time>
      </trkpt>
      <trkpt lat="45.28519" lon="5.27365">
        <ele>606</ele>
        <time>2020-04-14T16:05:54Z</time>
      </trkpt>
      <trkpt lat="45.28483" lon="5.27288">
        <ele>598</ele>
        <time>2020-04-14T16:05:59Z</time>
      </trkpt>
      <trkpt lat="45.28453" lon="5.2728">
        <ele>597</ele>
        <time>2020-04-14T16:06:04Z</time>
      </trkpt>
      <trkpt lat="45.2845" lon="5.27258">
        <ele>594</ele>
        <time>2020-04-14T16:06:09Z</time>
      </trkpt>
      <trkpt lat="45.28507" lon="5.27074">
        <ele>583</ele>
        <time>2020-04-14T16:06:14Z</time>
      </trkpt>
      <trkpt lat="45.28471" lon="5.27095">
        <ele>583</ele>
        <time>2020-04-14T16:06:19Z</time>
      </trkpt>
      <trkpt lat="45.28471" lon="5.27117">
        <ele>584</ele>
        <time>2020-04-14T16:06:24Z</time>
      </trkpt>
      <trkpt lat="45.28305" lon="5.27293">
        <ele>609</ele>
        <time>2020-04-14T16:06:29Z</time>
      </trkpt>
      <trkpt lat="45.28214" lon="5.27314">
        <ele>616</ele>
        <time>2020-04-14T16:06:34Z</time>
      </trkpt>
      <trkpt lat="45.281" lon="5.27228">
        <ele>623</ele>
        <time>2020-04-14T16:06:39Z</time>
      </trkpt>
      <trkpt lat="45.28021" lon="5.27224">
        <ele>623</ele>
        <time>2020-04-14T16:06:44Z</time>
      </trkpt>
      <trkpt lat="45.27924" lon="5.27168">
        <ele>620</ele>
        <time>2020-04-14T16:06:49Z</time>
      </trkpt>
      <trkpt lat="45.27858" lon="5.27134">
        <ele>615</ele>
        <time>2020-04-14T16:06:54Z</time>
      </trkpt>
      <trkpt lat="45.27816" lon="5.27074">
        <ele>610</ele>
        <time>2020-04-14T16:06:59Z</time>
      </trkpt>
      <trkpt lat="45.27761" lon="5.27069">
        <ele>605</ele>
        <time>2020-04-14T16:07:04Z</time>
      </trkpt>
      <trkpt lat="45.2771" lon="5.26923">
        <ele>594</ele>
        <time>2020-04-14T16:07:09Z</time>
      </trkpt>
      <trkpt lat="45.2761" lon="5.2685">
        <ele>587</ele>
        <time>2020-04-14T16:07:14Z</time>
      </trkpt>
      <trkpt lat="45.27505" lon="5.26803">
        <ele>580</ele>
        <time>2020-04-14T16:07:19Z</time>
      </trkpt>
      <trkpt lat="45.27411" lon="5.26747">
        <ele>567</ele>
        <time>2020-04-14T16:07:24Z</time>
      </trkpt>
      <trkpt lat="45.27357" lon="5.26662">
        <ele>552</ele>
        <time>2020-04-14T16:07:29Z</time>
      </trkpt>
      <trkpt lat="45.27308" lon="5.26473">
        <ele>549</ele>
        <time>2020-04-14T16:07:34Z</time>
      </trkpt>
      <trkpt lat="45.27097" lon="5.26657">
        <ele>551</ele>
        <time>2020-04-14T16:07:39Z</time>
      </trkpt>
      <trkpt lat="45.27012" lon="5.26529">
        <ele>570</ele>
        <time>2020-04-14T16:07:44Z</time>
      </trkpt>
      <trkpt lat="45.26928" lon="5.2646">
        <ele>582</ele>
        <time>2020-04-14T16:07:49Z</time>
      </trkpt>
      <trkpt lat="45.26816" lon="5.26288">
        <ele>586</ele>
        <time>2020-04-14T16:07:54Z</time>
      </trkpt>
      <trkpt lat="45.26562" lon="5.26022">
        <ele>592</ele>
        <time>2020-04-14T16:07:59Z</time>
      </trkpt>
      <trkpt lat="45.26457" lon="5.26001">
        <ele>593</ele>
        <time>2020-04-14T16:08:04Z</time>
      </trkpt>
      <trkpt lat="45.26433" lon="5.25915">
        <ele>588</ele>
        <time>2020-04-14T16:08:09Z</time>
      </trkpt>
      <trkpt lat="45.26472" lon="5.25851">
        <ele>584</ele>
        <time>2020-04-14T16:08:14Z</time>
      </trkpt>
      <trkpt lat="45.26448" lon="5.25606">
        <ele>559</ele>
        <time>2020-04-14T16:08:19Z</time>
      </trkpt>
      <trkpt lat="45.26408" lon="5.25615">
        <ele>558</ele>
        <time>2020-04-14T16:08:24Z</time>
      </trkpt>
      <trkpt lat="45.26327" lon="5.25713">
        <ele>558</ele>
        <time>2020-04-14T16:08:29Z</time>
      </trkpt>
      <trkpt lat="45.26245" lon="5.25984">
        <ele>552</ele>
        <time>2020-04-14T16:08:34Z</time>
      </trkpt>
      <trkpt lat="45.26306" lon="5.25512">
        <ele>527</ele>
        <time>2020-04-14T16:08:39Z</time>
      </trkpt>
      <trkpt lat="45.26209" lon="5.25383">
        <ele>522</ele>
        <time>2020-04-14T16:08:44Z</time>
      </trkpt>
      <trkpt lat="45.26185" lon="5.25494">
        <ele>526</ele>
        <time>2020-04-14T16:08:49Z</time>
      </trkpt>
      <trkpt lat="45.26115" lon="5.25619">
        <ele>534</ele>
        <time>2020-04-14T16:08:54Z</time>
      </trkpt>
      <trkpt lat="45.26091" lon="5.25842">
        <ele>532</ele>
        <time>2020-04-14T16:08:59Z</time>
      </trkpt>
      <trkpt lat="45.26025" lon="5.25855">
        <ele>549</ele>
        <time>2020-04-14T16:09:04Z</time>
      </trkpt>
      <trkpt lat="45.25952" lon="5.26048">
        <ele>564</ele>
        <time>2020-04-14T16:09:09Z</time>
      </trkpt>
      <trkpt lat="45.25904" lon="5.26087">
        <ele>572</ele>
        <time>2020-04-14T16:09:14Z</time>
      </trkpt>
      <trkpt lat="45.25892" lon="5.26147">
        <ele>572</ele>
        <time>2020-04-14T16:09:19Z</time>
      </trkpt>
      <trkpt lat="45.25807" lon="5.26263">
        <ele>584</ele>
        <time>2020-04-14T16:09:24Z</time>
      </trkpt>
      <trkpt lat="45.25807" lon="5.26134">
        <ele>589</ele>
        <time>2020-04-14T16:09:29Z</time>
      </trkpt>
      <trkpt lat="45.25695" lon="5.25945">
        <ele>598</ele>
        <time>2020-04-14T16:09:34Z</time>
      </trkpt>
      <trkpt lat="45.25629" lon="5.26022">
        <ele>605</ele>
        <time>2020-04-14T16:09:39Z</time>
      </trkpt>
      <trkpt lat="45.25517" lon="5.26224">
        <ele>616</ele>
        <time>2020-04-14T16:09:44Z</time>
      </trkpt>
      <trkpt lat="45.2543" lon="5.26357">
        <ele>620</ele>
        <time>2020-04-14T16:09:49Z</time>
      </trkpt>
      <trkpt lat="45.25366" lon="5.26408">
        <ele>620</ele>
        <time>2020-04-14T16:09:54Z</time>
      </trkpt>
      <trkpt lat="45.25475" lon="5.26469">
        <ele>620</ele>
        <time>2020-04-14T16:09:59Z</time>
      </trkpt>
    </trkseg>
  </trk>
  <trk>
    <name><![CDATA[J2 Dupre a Montrigaud par les cretes]]></name>
    <trkseg>
      <trkpt lat="45.25696" lon="5.25934">
        <ele>600</ele>
      </trkpt>
      <trkpt lat="45.25732" lon="5.26028">
        <ele>598</ele>
      </trkpt>
      <trkpt lat="45.25782" lon="5.26104">
        <ele>590</ele>
      </trkpt>
      <trkpt lat="45.25797" lon="5.26207">
        <ele>585</ele>
      </trkpt>
      <trkpt lat="45.25787" lon="5.26321">
        <ele>584</ele>
      </trkpt>
      <trkpt lat="45.25781" lon="5.26451">
        <ele>583</ele>
      </trkpt>
      <trkpt lat="45.25772" lon="5.26556">
        <ele>584</ele>
      </trkpt>
      <trkpt lat="45.25748" lon="5.26682">
        <ele>587</ele>
      </trkpt>
      <trkpt lat="45.25737" lon="5.26777">
        <ele>586</ele>
      </trkpt>
      <trkpt lat="45.25676" lon="5.26847">
        <ele>590</ele>
      </trkpt>
      <trkpt lat="45.25626" lon="5.26892">
        <ele>590</ele>
      </trkpt>
      <trkpt lat="45.25525" lon="5.26941">
        <ele>593</ele>
      </trkpt>
      <trkpt lat="45.25453" lon="5.26972">
        <ele>596</ele>
      </trkpt>
      <trkpt lat="45.25357" lon="5.27002">
        <ele>603</ele>
      </trkpt>
      <trkpt lat="45.25291" lon="5.27027">
        <ele>610</ele>
      </trkpt>
      <trkpt lat="45.25212" lon="5.27125">
        <ele>610</ele>
      </trkpt>
      <trkpt lat="45.25153" lon="5.27138">
        <ele>615</ele>
      </trkpt>
      <trkpt lat="45.25112" lon="5.2718">
        <ele>614</ele>
      </trkpt>
      <trkpt lat="45.25098" lon="5.27294">
        <ele>602</ele>
      </trkpt>
      <trkpt lat="45.25065" lon="5.27414">
        <ele>593</ele>
      </trkpt>
      <trkpt lat="45.2507" lon="5.27487">
        <ele>592</ele>
      </trkpt>
      <trkpt lat="45.25074" lon="5.27586">
        <ele>594</ele>
      </trkpt>
      <trkpt lat="45.25141" lon="5.27596">
        <ele>601</ele>
      </trkpt>
      <trkpt lat="45.25235" lon="5.2763">
        <ele>612</ele>
      </trkpt>
      <trkpt lat="45.25297" lon="5.27592">
        <ele>610</ele>
      </trkpt>
      <trkpt lat="45.25455" lon="5.27555">
        <ele>614</ele>
      </trkpt>
      <trkpt lat="45.25516" lon="5.27555">
        <ele>614</ele>
      </trkpt>
      <trkpt lat="45.25575" lon="5.27625">
        <ele>612</ele>
      </trkpt>
      <trkpt lat="45.25622" lon="5.27724">
        <ele>606</ele>
      </trkpt>
      <trkpt lat="45.25647" lon="5.27792">
        <ele>600</ele>
      </trkpt>
      <trkpt lat="45.25638" lon="5.27887">
        <ele>599</ele>
      </trkpt>
      <trkpt lat="45.25648" lon="5.28104">
        <ele>582</ele>
      </trkpt>
      <trkpt lat="45.25583" lon="5.28244">
        <ele>581</ele>
      </trkpt>
      <trkpt lat="45.25634" lon="5.28275">
        <ele>583</ele>
      </trkpt>
      <trkpt lat="45.25682" lon="5.2824">
        <ele>581</ele>
      </trkpt>
      <trkpt lat="45.25741" lon="5.28246">
        <ele>577</ele>
      </trkpt>
      <trkpt lat="45.25627" lon="5.28377">
        <ele>596</ele>
      </trkpt>
      <trkpt lat="45.25569" lon="5.28622">
        <ele>610</ele>
      </trkpt>
      <trkpt lat="45.2531" lon="5.28943">
        <ele>630</ele>
      </trkpt>
      <trkpt lat="45.25256" lon="5.28969">
        <ele>631</ele>
      </trkpt>
      <trkpt lat="45.2517" lon="5.2907">
        <ele>634</ele>
      </trkpt>
      <trkpt lat="45.25087" lon="5.29119">
        <ele>639</ele>
      </trkpt>
      <trkpt lat="45.25032" lon="5.29183">
        <ele>647</ele>
      </trkpt>
      <trkpt lat="45.24996" lon="5.29258">
        <ele>651</ele>
      </trkpt>
      <trkpt lat="45.24947" lon="5.29325">
        <ele>655</ele>
      </trkpt>
      <trkpt lat="45.24876" lon="5.29369">
        <ele>659</ele>
      </trkpt>
      <trkpt lat="45.24765" lon="5.29411">
        <ele>662</ele>
      </trkpt>
      <trkpt lat="45.2471" lon="5.2944">
        <ele>664</ele>
      </trkpt>
      <trkpt lat="45.24647" lon="5.2944">
        <ele>666</ele>
      </trkpt>
      <trkpt lat="45.24561" lon="5.29528">
        <ele>669</ele>
      </trkpt>
      <trkpt lat="45.24441" lon="5.2955">
        <ele>668</ele>
      </trkpt>
      <trkpt lat="45.24412" lon="5.29631">
        <ele>671</ele>
      </trkpt>
      <trkpt lat="45.24364" lon="5.29664">
        <ele>671</ele>
      </trkpt>
      <trkpt lat="45.24309" lon="5.29712">
        <ele>671</ele>
      </trkpt>
      <trkpt lat="45.24049" lon="5.30775">
        <ele>690</ele>
      </trkpt>
      <trkpt lat="45.23956" lon="5.30792">
        <ele>690</ele>
      </trkpt>
      <trkpt lat="45.23605" lon="5.3063">
        <ele>683</ele>
      </trkpt>
      <trkpt lat="45.23533" lon="5.30518">
        <ele>689</ele>
      </trkpt>
      <trkpt lat="45.23435" lon="5.30423">
        <ele>694</ele>
      </trkpt>
      <trkpt lat="45.23365" lon="5.30334">
        <ele>689</ele>
      </trkpt>
      <trkpt lat="45.23306" lon="5.3019">
        <ele>683</ele>
      </trkpt>
      <trkpt lat="45.2324" lon="5.3011">
        <ele>676</ele>
      </trkpt>
      <trkpt lat="45.232" lon="5.30035">
        <ele>670</ele>
      </trkpt>
      <trkpt lat="45.23178" lon="5.29935">
        <ele>668</ele>
      </trkpt>
      <trkpt lat="45.23134" lon="5.29869">
        <ele>669</ele>
      </trkpt>
      <trkpt lat="45.23074" lon="5.29767">
        <ele>667</ele>
      </trkpt>
      <trkpt lat="45.22982" lon="5.29657">
        <ele>664</ele>
      </trkpt>
      <trkpt lat="45.22926" lon="5.2959">
        <ele>660</ele>
      </trkpt>
      <trkpt lat="45.22824" lon="5.29365">
        <ele>651</ele>
      </trkpt>
      <trkpt lat="45.2281" lon="5.29221">
        <ele>645</ele>
      </trkpt>
      <trkpt lat="45.22812" lon="5.29132">
        <ele>646</ele>
      </trkpt>
      <trkpt lat="45.22838" lon="5.29006">
        <ele>648</ele>
      </trkpt>
      <trkpt lat="45.22844" lon="5.28924">
        <ele>651</ele>
      </trkpt>
      <trkpt lat="45.22818" lon="5.28833">
        <ele>651</ele>
      </trkpt>
      <trkpt lat="45.22783" lon="5.28768">
        <ele>651</ele>
      </trkpt>
      <trkpt lat="45.22794" lon="5.28704">
        <ele>653</ele>
      </trkpt>
      <trkpt lat="45.22775" lon="5.28582">
        <ele>651</ele>
      </trkpt>
      <trkpt lat="45.22787" lon="5.28475">
        <ele>650</ele>
      </trkpt>
      <trkpt lat="45.22791" lon="5.28383">
        <ele>648</ele>
      </trkpt>
      <trkpt lat="45.22749" lon="5.28298">
        <ele>642</ele>
      </trkpt>
      <trkpt lat="45.22722" lon="5.28207">
        <ele>645</ele>
      </trkpt>
      <trkpt lat="45.22695" lon="5.28126">
        <ele>645</ele>
      </trkpt>
      <trkpt lat="45.22662" lon="5.28076">
        <ele>642</ele>
      </trkpt>
      <trkpt lat="45.22611" lon="5.28051">
        <ele>639</ele>
      </trkpt>
      <trkpt lat="45.22526" lon="5.28044">
        <ele>642</ele>
      </trkpt>
      <trkpt lat="45.22478" lon="5.28041">
        <ele>645</ele>
      </trkpt>
      <trkpt lat="45.22385" lon="5.27988">
        <ele>652</ele>
      </trkpt>
      <trkpt lat="45.22337" lon="5.27948">
        <ele>656</ele>
      </trkpt>
      <trkpt lat="45.22252" lon="5.2794">
        <ele>655</ele>
      </trkpt>
      <trkpt lat="45.22132" lon="5.27937">
        <ele>652</ele>
      </trkpt>
      <trkpt lat="45.2211" lon="5.27859">
        <ele>652</ele>
      </trkpt>
      <trkpt lat="45.22049" lon="5.277">
        <ele>654</ele>
      </trkpt>
      <trkpt lat="45.21967" lon="5.27641">
        <ele>654</ele>
      </trkpt>
      <trkpt lat="45.21896" lon="5.27596">
        <ele>652</ele>
      </trkpt>
      <trkpt lat="45.21817" lon="5.27535">
        <ele>650</ele>
      </trkpt>
      <trkpt lat="45.2178" lon="5.27485">
        <ele>649</ele>
      </trkpt>
      <trkpt lat="45.21743" lon="5.27416">
        <ele>649</ele>
      </trkpt>
      <trkpt lat="45.21706" lon="5.27363">
        <ele>648</ele>
      </trkpt>
      <trkpt lat="45.21655" lon="5.27335">
        <ele>646</ele>
      </trkpt>
      <trkpt lat="45.21585" lon="5.27271">
        <ele>645</ele>
      </trkpt>
      <trkpt lat="45.2159" lon="5.27157">
        <ele>647</ele>
      </trkpt>
      <trkpt lat="45.2157" lon="5.27063">
        <ele>646</ele>
      </trkpt>
      <trkpt lat="45.21562" lon="5.26955">
        <ele>645</ele>
      </trkpt>
      <trkpt lat="45.21576" lon="5.26869">
        <ele>643</ele>
      </trkpt>
      <trkpt lat="45.21534" lon="5.26746">
        <ele>641</ele>
      </trkpt>
      <trkpt lat="45.21509" lon="5.26678">
        <ele>634</ele>
      </trkpt>
      <trkpt lat="45.21511" lon="5.26592">
        <ele>628</ele>
      </trkpt>
      <trkpt lat="45.21498" lon="5.26467">
        <ele>627</ele>
      </trkpt>
      <trkpt lat="45.21501" lon="5.26378">
        <ele>630</ele>
      </trkpt>
      <trkpt lat="45.21486" lon="5.2626">
        <ele>636</ele>
      </trkpt>
      <trkpt lat="45.21458" lon="5.26124">
        <ele>638</ele>
      </trkpt>
      <trkpt lat="45.21409" lon="5.26023">
        <ele>642</ele>
      </trkpt>
      <trkpt lat="45.21392" lon="5.25885">
        <ele>643</ele>
      </trkpt>
      <trkpt lat="45.21348" lon="5.25768">
        <ele>645</ele>
      </trkpt>
      <trkpt lat="45.21331" lon="5.2571">
        <ele>644</ele>
      </trkpt>
      <trkpt lat="45.21316" lon="5.25614">
        <ele>643</ele>
      </trkpt>
      <trkpt lat="45.2127" lon="5.25478">
        <ele>639</ele>
      </trkpt>
      <trkpt lat="45.212" lon="5.25334">
        <ele>640</ele>
      </trkpt>
      <trkpt lat="45.21154" lon="5.25265">
        <ele>642</ele>
      </trkpt>
      <trkpt lat="45.21082" lon="5.25169">
        <ele>642</ele>
      </trkpt>
      <trkpt lat="45.2089" lon="5.25108">
        <ele>632</ele>
      </trkpt>
      <trkpt lat="45.20738" lon="5.25103">
        <ele>627</ele>
      </trkpt>
      <trkpt lat="45.20858" lon="5.24972">
        <ele>627</ele>
      </trkpt>
      <trkpt lat="45.2095" lon="5.24888">
        <ele>625</ele>
      </trkpt>
      <trkpt lat="45.21064" lon="5.24681">
        <ele>620</ele>
      </trkpt>
      <trkpt lat="45.21111" lon="5.24594">
        <ele>621</ele>
      </trkpt>
      <trkpt lat="45.21131" lon="5.24519">
        <ele>622</ele>
      </trkpt>
      <trkpt lat="45.21129" lon="5.24413">
        <ele>619</ele>
      </trkpt>
      <trkpt lat="45.21099" lon="5.24284">
        <ele>617</ele>
      </trkpt>
      <trkpt lat="45.20998" lon="5.24177">
        <ele>612</ele>
      </trkpt>
      <trkpt lat="45.20964" lon="5.24112">
        <ele>612</ele>
      </trkpt>
      <trkpt lat="45.20929" lon="5.24078">
        <ele>609</ele>
      </trkpt>
      <trkpt lat="45.20914" lon="5.23963">
        <ele>610</ele>
      </trkpt>
      <trkpt lat="45.20877" lon="5.239">
        <ele>603</ele>
      </trkpt>
      <trkpt lat="45.20856" lon="5.23845">
        <ele>602</ele>
      </trkpt>
      <trkpt lat="45.20896" lon="5.2378">
        <ele>608</ele>
      </trkpt>
      <trkpt lat="45.20929" lon="5.23722">
        <ele>609</ele>
      </trkpt>
      <trkpt lat="45.20922" lon="5.23658">
        <ele>604</ele>
      </trkpt>
      <trkpt lat="45.20851" lon="5.23609">
        <ele>592</ele>
      </trkpt>
      <trkpt lat="45.20799" lon="5.23537">
        <ele>587</ele>
      </trkpt>
      <trkpt lat="45.20811" lon="5.23483">
        <ele>592</ele>
      </trkpt>
      <trkpt lat="45.20839" lon="5.23443">
        <ele>593</ele>
      </trkpt>
      <trkpt lat="45.20858" lon="5.23329">
        <ele>586</ele>
      </trkpt>
      <trkpt lat="45.20914" lon="5.23269">
        <ele>578</ele>
      </trkpt>
      <trkpt lat="45.20954" lon="5.23268">
        <ele>573</ele>
      </trkpt>
      <trkpt lat="45.20989" lon="5.23304">
        <ele>575</ele>
      </trkpt>
      <trkpt lat="45.21033" lon="5.23355">
        <ele>578</ele>
      </trkpt>
      <trkpt lat="45.21066" lon="5.23388">
        <ele>581</ele>
      </trkpt>
      <trkpt lat="45.2111" lon="5.23352">
        <ele>578</ele>
      </trkpt>
      <trkpt lat="45.21132" lon="5.23261">
        <ele>574</ele>
      </trkpt>
      <trkpt lat="45.21156" lon="5.23208">
        <ele>573</ele>
      </trkpt>
      <trkpt lat="45.212" lon="5.23169">
        <ele>577</ele>
      </trkpt>
      <trkpt lat="45.21182" lon="5.23073">
        <ele>568</ele>
      </trkpt>
      <trkpt lat="45.21182" lon="5.22974">
        <ele>566</ele>
      </trkpt>
      <trkpt lat="45.21236" lon="5.22919">
        <ele>570</ele>
      </trkpt>
      <trkpt lat="45.21271" lon="5.22861">
        <ele>568</ele>
      </trkpt>
      <trkpt lat="45.2128" lon="5.22782">
        <ele>569</ele>
      </trkpt>
      <trkpt lat="45.21234" lon="5.22738">
        <ele>562</ele>
      </trkpt>
      <trkpt lat="45.21175" lon="5.22732">
        <ele>556</ele>
      </trkpt>
      <trkpt lat="45.21141" lon="5.22762">
        <ele>548</ele>
      </trkpt>
      <trkpt lat="45.21125" lon="5.2285">
        <ele>539</ele>
      </trkpt>
      <trkpt lat="45.21145" lon="5.22937">
        <ele>553</ele>
      </trkpt>
      <trkpt lat="45.21103" lon="5.23002">
        <ele>545</ele>
      </trkpt>
      <trkpt lat="45.21005" lon="5.23032">
        <ele>537</ele>
      </trkpt>
      <trkpt lat="45.20989" lon="5.2298">
        <ele>530</ele>
      </trkpt>
      <trkpt lat="45.20965" lon="5.22953">
        <ele>524</ele>
      </trkpt>
      <trkpt lat="45.20999" lon="5.22917">
        <ele>523</ele>
      </trkpt>
      <trkpt lat="45.20878" lon="5.22828">
        <ele>512</ele>
      </trkpt>
      <trkpt lat="45.20812" lon="5.22776">
        <ele>511</ele>
      </trkpt>
      <trkpt lat="45.2077" lon="5.22755">
        <ele>512</ele>
      </trkpt>
      <trkpt lat="45.2068" lon="5.22757">
        <ele>507</ele>
      </trkpt>
      <trkpt lat="45.20612" lon="5.22775">
        <ele>502</ele>
      </trkpt>
      <trkpt lat="45.20563" lon="5.22805">
        <ele>496</ele>
      </trkpt>
      <trkpt lat="45.20521" lon="5.2279">
        <ele>498</ele>
      </trkpt>
      <trkpt lat="45.20457" lon="5.22739">
        <ele>496</ele>
      </trkpt>
      <trkpt lat="45.20428" lon="5.22667">
        <ele>497</ele>
      </trkpt>
      <trkpt lat="45.20405" lon="5.22586">
        <ele>497</ele>
      </trkpt>
      <trkpt lat="45.2038" lon="5.22496">
        <ele>500</ele>
      </trkpt>
      <trkpt lat="45.2034" lon="5.22402">
        <ele>498</ele>
      </trkpt>
      <trkpt lat="45.20313" lon="5.2233">
        <ele>493</ele>
      </trkpt>
      <trkpt lat="45.20306" lon="5.22231">
        <ele>490</ele>
      </trkpt>
      <trkpt lat="45.20277" lon="5.22121">
        <ele>485</ele>
      </trkpt>
      <trkpt lat="45.20311" lon="5.22024">
        <ele>492</ele>
      </trkpt>
      <trkpt lat="45.20318" lon="5.21936">
        <ele>491</ele>
      </trkpt>
      <trkpt lat="45.20273" lon="5.21851">
        <ele>482</ele>
      </trkpt>
      <trkpt lat="45.20238" lon="5.21817">
        <ele>477</ele>
      </trkpt>
      <trkpt lat="45.20242" lon="5.21753">
        <ele>471</ele>
      </trkpt>
      <trkpt lat="45.20248" lon="5.217">
        <ele>472</ele>
      </trkpt>
      <trkpt lat="45.20221" lon="5.21616">
        <ele>476</ele>
      </trkpt>
      <trkpt lat="45.20179" lon="5.21575">
        <ele>473</ele>
      </trkpt>
      <trkpt lat="45.20129" lon="5.21528">
        <ele>469</ele>
      </trkpt>
      <trkpt lat="45.20053" lon="5.21483">
        <ele>463</ele>
      </trkpt>
      <trkpt lat="45.20012" lon="5.21436">
        <ele>462</ele>
      </trkpt>
      <trkpt lat="45.19973" lon="5.2138">
        <ele>459</ele>
      </trkpt>
      <trkpt lat="45.19947" lon="5.21226">
        <ele>455</ele>
      </trkpt>
      <trkpt lat="45.19938" lon="5.21155">
        <ele>460</ele>
      </trkpt>
      <trkpt lat="45.19912" lon="5.21119">
        <ele>458</ele>
      </trkpt>
      <trkpt lat="45.19828" lon="5.21124">
        <ele>451</ele>
      </trkpt>
      <trkpt lat="45.19763" lon="5.21143">
        <ele>446</ele>
      </trkpt>
      <trkpt lat="45.19715" lon="5.21074">
        <ele>444</ele>
      </trkpt>
      <trkpt lat="45.19773" lon="5.21077">
        <ele>451</ele>
      </trkpt>
      <trkpt lat="45.19813" lon="5.21041">
        <ele>457</ele>
      </trkpt>
      <trkpt lat="45.19847" lon="5.21004">
        <ele>463</ele>
      </trkpt>
      <trkpt lat="45.19884" lon="5.20971">
        <ele>468</ele>
      </trkpt>
      <trkpt lat="45.19944" lon="5.20936">
        <ele>478</ele>
      </trkpt>
      <trkpt lat="45.19996" lon="5.20986">
        <ele>476</ele>
      </trkpt>
      <trkpt lat="45.19989" lon="5.20938">
        <ele>480</ele>
      </trkpt>
      <trkpt lat="45.20025" lon="5.20845">
        <ele>492</ele>
      </trkpt>
      <trkpt lat="45.20055" lon="5.20802">
        <ele>501</ele>
      </trkpt>
      <trkpt lat="45.20018" lon="5.20752">
        <ele>498</ele>
      </trkpt>
      <trkpt lat="45.19964" lon="5.20682">
        <ele>494</ele>
      </trkpt>
      <trkpt lat="45.19914" lon="5.20591">
        <ele>504</ele>
      </trkpt>
      <trkpt lat="45.19803" lon="5.2054">
        <ele>506</ele>
      </trkpt>
      <trkpt lat="45.19789" lon="5.20485">
        <ele>514</ele>
      </trkpt>
      <trkpt lat="45.19774" lon="5.20443">
        <ele>515</ele>
      </trkpt>
      <trkpt lat="45.19799" lon="5.20365">
        <ele>520</ele>
      </trkpt>
      <trkpt lat="45.19862" lon="5.20276">
        <ele>529</ele>
      </trkpt>
      <trkpt lat="45.1985" lon="5.20205">
        <ele>526</ele>
      </trkpt>
      <trkpt lat="45.19851" lon="5.20078">
        <ele>532</ele>
      </trkpt>
      <trkpt lat="45.19849" lon="5.19979">
        <ele>534</ele>
      </trkpt>
      <trkpt lat="45.19866" lon="5.19837">
        <ele>541</ele>
      </trkpt>
      <trkpt lat="45.1987" lon="5.1977">
        <ele>543</ele>
      </trkpt>
      <trkpt lat="45.19867" lon="5.19707">
        <ele>543</ele>
      </trkpt>
      <trkpt lat="45.19909" lon="5.19645">
        <ele>551</ele>
      </trkpt>
      <trkpt lat="45.1995" lon="5.19634">
        <ele>557</ele>
      </trkpt>
      <trkpt lat="45.20031" lon="5.19642">
        <ele>566</ele>
      </trkpt>
      <trkpt lat="45.20055" lon="5.19672">
        <ele>569</ele>
      </trkpt>
      <trkpt lat="45.20061" lon="5.19627">
        <ele>568</ele>
      </trkpt>
      <trkpt lat="45.20112" lon="5.19729">
        <ele>574</ele>
      </trkpt>
      <trkpt lat="45.20129" lon="5.1978">
        <ele>578</ele>
      </trkpt>
      <trkpt lat="45.20123" lon="5.19837">
        <ele>581</ele>
      </trkpt>
      <trkpt lat="45.20131" lon="5.19959">
        <ele>583</ele>
      </trkpt>
      <trkpt lat="45.2016" lon="5.2004">
        <ele>587</ele>
      </trkpt>
      <trkpt lat="45.20214" lon="5.20129">
        <ele>591</ele>
      </trkpt>
      <trkpt lat="45.20252" lon="5.20232">
        <ele>592</ele>
      </trkpt>
      <trkpt lat="45.20272" lon="5.20316">
        <ele>594</ele>
      </trkpt>
      <trkpt lat="45.20311" lon="5.20388">
        <ele>594</ele>
      </trkpt>
      <trkpt lat="45.20365" lon="5.20461">
        <ele>594</ele>
      </trkpt>
      <trkpt lat="45.20417" lon="5.20486">
        <ele>597</ele>
      </trkpt>
      <trkpt lat="45.2045" lon="5.20507">
        <ele>599</ele>
      </trkpt>
      <trkpt lat="45.20495" lon="5.20579">
        <ele>595</ele>
      </trkpt>
      <trkpt lat="45.20541" lon="5.20617">
        <ele>593</ele>
      </trkpt>
      <trkpt lat="45.20583" lon="5.20654">
        <ele>592</ele>
      </trkpt>
      <trkpt lat="45.20623" lon="5.20691">
        <ele>590</ele>
      </trkpt>
      <trkpt lat="45.20683" lon="5.20618">
        <ele>592.091064</ele>
      </trkpt>
      <trkpt lat="45.20716" lon="5.20021">
        <ele>589.601868</ele>
      </trkpt>
      <trkpt lat="45.20685" lon="5.19472">
        <ele>567.102356</ele>
      </trkpt>
      <trkpt lat="45.20676" lon="5.19153">
        <ele>564.381104</ele>
      </trkpt>
      <trkpt lat="45.20525" lon="5.187">
        <ele>552.393555</ele>
      </trkpt>
      <trkpt lat="45.20486" lon="5.18125">
        <ele>533.734802</ele>
      </trkpt>
      <trkpt lat="45.20242" lon="5.17794">
        <ele>519.792664</ele>
      </trkpt>
      <trkpt lat="45.20036" lon="5.17758">
        <ele>484.251892</ele>
      </trkpt>
      <trkpt lat="45.20058" lon="5.1725">
        <ele>449.144073</ele>
      </trkpt>
      <trkpt lat="45.20063" lon="5.16715">
        <ele>432.15918</ele>
      </trkpt>
      <trkpt lat="45.2007" lon="5.16423">
        <ele>439.67157</ele>
      </trkpt>
      <trkpt lat="45.20215" lon="5.16392">
        <ele>445.719666</ele>
      </trkpt>
      <trkpt lat="45.2032" lon="5.16499">
        <ele>460.648743</ele>
      </trkpt>
      <trkpt lat="45.20398" lon="5.16274">
        <ele>476.608765</ele>
      </trkpt>
      <trkpt lat="45.20704" lon="5.15933">
        <ele>525.228149</ele>
      </trkpt>
      <trkpt lat="45.20871" lon="5.15738">
        <ele>529.185425</ele>
      </trkpt>
      <trkpt lat="45.21044" lon="5.15645">
        <ele>522.32251</ele>
      </trkpt>
      <trkpt lat="45.20931" lon="5.15142">
        <ele>520.451172</ele>
      </trkpt>
      <trkpt lat="45.21054" lon="5.14537">
        <ele>511.356659</ele>
      </trkpt>
      <trkpt lat="45.20969" lon="5.14329">
        <ele>510.438568</ele>
      </trkpt>
      <trkpt lat="45.21075" lon="5.1408">
        <ele>506.933746</ele>
      </trkpt>
      <trkpt lat="45.20835" lon="5.13584">
        <ele>436.206909</ele>
      </trkpt>
      <trkpt lat="45.20952" lon="5.13246">
        <ele>384.55661</ele>
      </trkpt>
      <trkpt lat="45.21259" lon="5.13198">
        <ele>388.926422</ele>
      </trkpt>
      <trkpt lat="45.21465" lon="5.13234">
        <ele>403.491913</ele>
      </trkpt>
      <trkpt lat="45.21648" lon="5.13128">
        <ele>435.946838</ele>
      </trkpt>
      <trkpt lat="45.21893" lon="5.13051">
        <ele>471.020813</ele>
      </trkpt>
      <trkpt lat="45.22282" lon="5.12969">
        <ele>511.816589</ele>
      </trkpt>
      <trkpt lat="45.22426" lon="5.12976">
        <ele>513.35907</ele>
      </trkpt>
      <trkpt lat="45.22563" lon="5.12869">
        <ele>513</ele>
      </trkpt>
      <trkpt lat="45.22734" lon="5.12877">
        <ele>509.682739</ele>
      </trkpt>
      <trkpt lat="45.22824" lon="5.12882">
        <ele>499.470245</ele>
      </trkpt>
    </trkseg>
  </trk>
  <trk>
    <name><![CDATA[J3  Montrigaud a Dupre]]></name>
    <trkseg>
      <trkpt lat="45.22822" lon="5.12729">
        <ele>475</ele>
      </trkpt>
      <trkpt lat="45.22988" lon="5.12897">
        <ele>476</ele>
      </trkpt>
      <trkpt lat="45.22958" lon="5.12948">
        <ele>487</ele>
      </trkpt>
      <trkpt lat="45.22777" lon="5.12944">
        <ele>509</ele>
      </trkpt>
      <trkpt lat="45.22493" lon="5.12845">
        <ele>514</ele>
      </trkpt>
      <trkpt lat="45.22357" lon="5.13">
        <ele>513</ele>
      </trkpt>
      <trkpt lat="45.22054" lon="5.13025">
        <ele>494</ele>
      </trkpt>
      <trkpt lat="45.21894" lon="5.13025">
        <ele>471</ele>
      </trkpt>
      <trkpt lat="45.21831" lon="5.13081">
        <ele>464</ele>
      </trkpt>
      <trkpt lat="45.21698" lon="5.13133">
        <ele>443</ele>
      </trkpt>
      <trkpt lat="45.2154" lon="5.13253">
        <ele>408</ele>
      </trkpt>
      <trkpt lat="45.21414" lon="5.13274">
        <ele>392</ele>
      </trkpt>
      <trkpt lat="45.21341" lon="5.13201">
        <ele>393</ele>
      </trkpt>
      <trkpt lat="45.2125" lon="5.13124">
        <ele>389</ele>
      </trkpt>
      <trkpt lat="45.21138" lon="5.1312">
        <ele>385</ele>
      </trkpt>
      <trkpt lat="45.21078" lon="5.13154">
        <ele>384</ele>
      </trkpt>
      <trkpt lat="45.20924" lon="5.13197">
        <ele>381</ele>
      </trkpt>
      <trkpt lat="45.2086" lon="5.13373">
        <ele>408</ele>
      </trkpt>
      <trkpt lat="45.20863" lon="5.13626">
        <ele>442</ele>
      </trkpt>
      <trkpt lat="45.20918" lon="5.13751">
        <ele>466</ele>
      </trkpt>
      <trkpt lat="45.20912" lon="5.13845">
        <ele>483</ele>
      </trkpt>
      <trkpt lat="45.20999" lon="5.14068">
        <ele>506</ele>
      </trkpt>
      <trkpt lat="45.21111" lon="5.1412">
        <ele>510</ele>
      </trkpt>
      <trkpt lat="45.20984" lon="5.14266">
        <ele>510</ele>
      </trkpt>
      <trkpt lat="45.20942" lon="5.1436">
        <ele>510</ele>
      </trkpt>
      <trkpt lat="45.21008" lon="5.14583">
        <ele>511</ele>
      </trkpt>
      <trkpt lat="45.20957" lon="5.14944">
        <ele>517</ele>
      </trkpt>
      <trkpt lat="45.21036" lon="5.15489">
        <ele>522</ele>
      </trkpt>
      <trkpt lat="45.20978" lon="5.15695">
        <ele>526</ele>
      </trkpt>
      <trkpt lat="45.20736" lon="5.15901">
        <ele>528</ele>
      </trkpt>
      <trkpt lat="45.20479" lon="5.16107">
        <ele>503</ele>
      </trkpt>
      <trkpt lat="45.20383" lon="5.16201">
        <ele>478</ele>
      </trkpt>
      <trkpt lat="45.20307" lon="5.16373">
        <ele>450</ele>
      </trkpt>
      <trkpt lat="45.20298" lon="5.16467">
        <ele>451</ele>
      </trkpt>
      <trkpt lat="45.20216" lon="5.16398">
        <ele>442</ele>
      </trkpt>
      <trkpt lat="45.20083" lon="5.16411">
        <ele>435</ele>
      </trkpt>
      <trkpt lat="45.20072" lon="5.16493">
        <ele>439</ele>
      </trkpt>
      <trkpt lat="45.20172" lon="5.16552">
        <ele>454</ele>
      </trkpt>
      <trkpt lat="45.20349" lon="5.16653">
        <ele>472</ele>
      </trkpt>
      <trkpt lat="45.2042" lon="5.16698">
        <ele>478</ele>
      </trkpt>
      <trkpt lat="45.20552" lon="5.16718">
        <ele>487</ele>
      </trkpt>
      <trkpt lat="45.20586" lon="5.16726">
        <ele>489</ele>
      </trkpt>
      <trkpt lat="45.20767" lon="5.16767">
        <ele>501</ele>
      </trkpt>
      <trkpt lat="45.20822" lon="5.16814">
        <ele>503</ele>
      </trkpt>
      <trkpt lat="45.20993" lon="5.16918">
        <ele>514</ele>
      </trkpt>
      <trkpt lat="45.21111" lon="5.16969">
        <ele>522</ele>
      </trkpt>
      <trkpt lat="45.21199" lon="5.1704">
        <ele>525</ele>
      </trkpt>
      <trkpt lat="45.213" lon="5.17144">
        <ele>528</ele>
      </trkpt>
      <trkpt lat="45.21337" lon="5.17121">
        <ele>529</ele>
      </trkpt>
      <trkpt lat="45.2138" lon="5.17094">
        <ele>530</ele>
      </trkpt>
      <trkpt lat="45.21478" lon="5.17118">
        <ele>528</ele>
      </trkpt>
      <trkpt lat="45.21513" lon="5.17139">
        <ele>528</ele>
      </trkpt>
      <trkpt lat="45.21961" lon="5.17188">
        <ele>485</ele>
      </trkpt>
      <trkpt lat="45.2217" lon="5.17128">
        <ele>457</ele>
      </trkpt>
      <trkpt lat="45.22251" lon="5.17145">
        <ele>462</ele>
      </trkpt>
      <trkpt lat="45.22348" lon="5.17023">
        <ele>478</ele>
      </trkpt>
      <trkpt lat="45.22356" lon="5.16889">
        <ele>489</ele>
      </trkpt>
      <trkpt lat="45.22342" lon="5.16873">
        <ele>487</ele>
      </trkpt>
      <trkpt lat="45.22342" lon="5.16876">
        <ele>487</ele>
      </trkpt>
      <trkpt lat="45.22366" lon="5.16724">
        <ele>496</ele>
      </trkpt>
      <trkpt lat="45.22413" lon="5.16902">
        <ele>498</ele>
      </trkpt>
      <trkpt lat="45.22492" lon="5.16922">
        <ele>508</ele>
      </trkpt>
      <trkpt lat="45.22534" lon="5.16841">
        <ele>523</ele>
      </trkpt>
      <trkpt lat="45.22655" lon="5.16793">
        <ele>528</ele>
      </trkpt>
      <trkpt lat="45.22676" lon="5.16918">
        <ele>529</ele>
      </trkpt>
      <trkpt lat="45.2277" lon="5.17194">
        <ele>531</ele>
      </trkpt>
      <trkpt lat="45.22819" lon="5.17305">
        <ele>531</ele>
      </trkpt>
      <trkpt lat="45.22885" lon="5.17477">
        <ele>532</ele>
      </trkpt>
      <trkpt lat="45.22944" lon="5.1762">
        <ele>536</ele>
      </trkpt>
      <trkpt lat="45.22974" lon="5.17854">
        <ele>540</ele>
      </trkpt>
      <trkpt lat="45.22979" lon="5.18109">
        <ele>548</ele>
      </trkpt>
      <trkpt lat="45.23077" lon="5.18477">
        <ele>551</ele>
      </trkpt>
      <trkpt lat="45.23122" lon="5.18498">
        <ele>551</ele>
      </trkpt>
      <trkpt lat="45.23202" lon="5.18432">
        <ele>550</ele>
      </trkpt>
      <trkpt lat="45.23523" lon="5.18388">
        <ele>550</ele>
      </trkpt>
      <trkpt lat="45.23645" lon="5.18385">
        <ele>550</ele>
      </trkpt>
      <trkpt lat="45.23705" lon="5.18656">
        <ele>554</ele>
      </trkpt>
      <trkpt lat="45.23761" lon="5.18751">
        <ele>555</ele>
      </trkpt>
      <trkpt lat="45.23681" lon="5.19072">
        <ele>554</ele>
      </trkpt>
      <trkpt lat="45.23692" lon="5.19168">
        <ele>550</ele>
      </trkpt>
      <trkpt lat="45.23766" lon="5.19337">
        <ele>557</ele>
      </trkpt>
      <trkpt lat="45.2382" lon="5.19522">
        <ele>562</ele>
      </trkpt>
      <trkpt lat="45.23746" lon="5.19862">
        <ele>564</ele>
      </trkpt>
      <trkpt lat="45.2372" lon="5.19994">
        <ele>562</ele>
      </trkpt>
      <trkpt lat="45.23765" lon="5.20188">
        <ele>562</ele>
      </trkpt>
      <trkpt lat="45.23781" lon="5.20338">
        <ele>564</ele>
      </trkpt>
      <trkpt lat="45.23729" lon="5.20431">
        <ele>563</ele>
      </trkpt>
      <trkpt lat="45.2372" lon="5.20609">
        <ele>565</ele>
      </trkpt>
      <trkpt lat="45.23743" lon="5.20699">
        <ele>568</ele>
      </trkpt>
      <trkpt lat="45.23745" lon="5.20792">
        <ele>569</ele>
      </trkpt>
      <trkpt lat="45.23691" lon="5.20964">
        <ele>573</ele>
      </trkpt>
      <trkpt lat="45.23654" lon="5.21099">
        <ele>581</ele>
      </trkpt>
      <trkpt lat="45.2353" lon="5.21357">
        <ele>590</ele>
      </trkpt>
      <trkpt lat="45.23419" lon="5.21479">
        <ele>590</ele>
      </trkpt>
      <trkpt lat="45.23296" lon="5.21511">
        <ele>593</ele>
      </trkpt>
      <trkpt lat="45.23229" lon="5.21679">
        <ele>601</ele>
      </trkpt>
      <trkpt lat="45.23157" lon="5.21835">
        <ele>602</ele>
      </trkpt>
      <trkpt lat="45.23128" lon="5.21919">
        <ele>603</ele>
      </trkpt>
      <trkpt lat="45.23024" lon="5.22213">
        <ele>608</ele>
      </trkpt>
      <trkpt lat="45.22936" lon="5.22295">
        <ele>609</ele>
      </trkpt>
      <trkpt lat="45.2268" lon="5.22351">
        <ele>615</ele>
      </trkpt>
      <trkpt lat="45.2219" lon="5.22418">
        <ele>622</ele>
      </trkpt>
      <trkpt lat="45.22166" lon="5.2248">
        <ele>629</ele>
      </trkpt>
      <trkpt lat="45.22735" lon="5.22819">
        <ele>627</ele>
      </trkpt>
      <trkpt lat="45.23408" lon="5.23166">
        <ele>627</ele>
      </trkpt>
      <trkpt lat="45.23741" lon="5.23239">
        <ele>630</ele>
      </trkpt>
      <trkpt lat="45.23992" lon="5.23565">
        <ele>630</ele>
      </trkpt>
      <trkpt lat="45.24221" lon="5.23758">
        <ele>629</ele>
      </trkpt>
      <trkpt lat="45.24164" lon="5.23926">
        <ele>622</ele>
      </trkpt>
      <trkpt lat="45.24306" lon="5.24308">
        <ele>605</ele>
      </trkpt>
      <trkpt lat="45.24478" lon="5.24531">
        <ele>578</ele>
      </trkpt>
      <trkpt lat="45.24708" lon="5.24565">
        <ele>561</ele>
      </trkpt>
      <trkpt lat="45.24811" lon="5.24471">
        <ele>564</ele>
      </trkpt>
      <trkpt lat="45.25098" lon="5.24544">
        <ele>527</ele>
      </trkpt>
      <trkpt lat="45.25424" lon="5.24484">
        <ele>511</ele>
      </trkpt>
      <trkpt lat="45.25524" lon="5.24437">
        <ele>508</ele>
      </trkpt>
      <trkpt lat="45.25684" lon="5.24273">
        <ele>504</ele>
      </trkpt>
      <trkpt lat="45.25811" lon="5.24115">
        <ele>503</ele>
      </trkpt>
      <trkpt lat="45.2588" lon="5.24252">
        <ele>515</ele>
      </trkpt>
      <trkpt lat="45.25986" lon="5.24398">
        <ele>519</ele>
      </trkpt>
      <trkpt lat="45.26052" lon="5.24591">
        <ele>533</ele>
      </trkpt>
      <trkpt lat="45.26056" lon="5.24628">
        <ele>534.044983</ele>
      </trkpt>
      <trkpt lat="45.26093" lon="5.24692">
        <ele>536.283752</ele>
      </trkpt>
      <trkpt lat="45.26115" lon="5.24781">
        <ele>543.147949</ele>
      </trkpt>
      <trkpt lat="45.26185" lon="5.24909">
        <ele>543.121216</ele>
      </trkpt>
      <trkpt lat="45.26193" lon="5.25006">
        <ele>544.042419</ele>
      </trkpt>
      <trkpt lat="45.26199" lon="5.25021">
        <ele>542.640869</ele>
      </trkpt>
      <trkpt lat="45.26177" lon="5.25235">
        <ele>539.470093</ele>
      </trkpt>
      <trkpt lat="45.2618" lon="5.25399">
        <ele>527.976135</ele>
      </trkpt>
      <trkpt lat="45.2619" lon="5.25489">
        <ele>521.91626</ele>
      </trkpt>
      <trkpt lat="45.26168" lon="5.25534">
        <ele>525.250549</ele>
      </trkpt>
      <trkpt lat="45.26101" lon="5.2551">
        <ele>537.838074</ele>
      </trkpt>
      <trkpt lat="45.26028" lon="5.25603">
        <ele>552.208984</ele>
      </trkpt>
      <trkpt lat="45.25922" lon="5.25782">
        <ele>576.884216</ele>
      </trkpt>
      <trkpt lat="45.2588" lon="5.25848">
        <ele>583.779846</ele>
      </trkpt>
      <trkpt lat="45.2583" lon="5.25867">
        <ele>588.888245</ele>
      </trkpt>
      <trkpt lat="45.25802" lon="5.25957">
        <ele>591.931519</ele>
      </trkpt>
      <trkpt lat="45.25717" lon="5.25963">
        <ele>600.146851</ele>
      </trkpt>
      <trkpt lat="45.25694" lon="5.25899">
        <ele>598.078918</ele>
      </trkpt>
      <trkpt lat="45.25695" lon="5.25899">
        <ele>598.037537</ele>
      </trkpt>
    </trkseg>
  </trk>
</gpx>